When you browse on this site, cookies collect data to enhance your experience and personalize the content and advertising you see.
Visit our Privacy Policy to learn more. By continuing to use the site, you agree to this use of cookies and data.
  • En España
  • Lista de países
  • Para 7 días
  • Temperatura del agua
  • El tiempo en el mapa
  • Informadores
  • user-avatar
    Iniciar sesión

    Tiempo cada hora Tamale

    Hoy, 5 Abril, Domingo

    Tiempo Temperatura Precipitaciones Viento Presión Humedad
    00:00 +30°C° 0 mm 3 mps 742 mmHg 62%
    01:00 +30°C° 0 mm 3 mps 742 mmHg 64%
    02:00 +29°C° 0 mm 2 mps 741 mmHg 66%
    03:00 +29°C° 0 mm 2 mps 740 mmHg 68%
    04:00 +28°C° 0 mm 2 mps 741 mmHg 69%
    05:00 +28°C° 0 mm 2 mps 741 mmHg 71%
    06:00 +28°C° 0 mm 2 mps 742 mmHg 72%
    07:00 +29°C° 0 mm 2 mps 742 mmHg 66%
    08:00 +31°C° 0 mm 2 mps 742 mmHg 60%
    09:00 +32°C° 0 mm 2 mps 743 mmHg 54%
    10:00 +36°C° 0 mm 2 mps 742 mmHg 47%
    11:00 +38°C° 0 mm 2 mps 742 mmHg 40%
    12:00 +40°C° 0 mm 2 mps 742 mmHg 34%
    13:00 +41°C° 0 mm 2 mps 741 mmHg 31%
    14:00 +42°C° 0 mm 1 mps 740 mmHg 27%
    15:00 +43°C° 0 mm 1 mps 739 mmHg 24%
    16:00 +42°C° 0 mm 1 mps 739 mmHg 25%
    17:00 +41°C° 0 mm 1 mps 739 mmHg 27%
    18:00 +39°C° 0 mm 1 mps 739 mmHg 29%
    19:00 +37°C° 0 mm 1 mps 740 mmHg 31%
    20:00 +36°C° 0 mm 1 mps 740 mmHg 33%
    21:00 +33°C° 0 mm 0 mps 740 mmHg 34%
    22:00 +35°C° 0 mm 1 mps 740 mmHg 37%
    23:00 +34°C° 0 mm 1 mps 740 mmHg 39%

    Mañana, 6 Abril, Lunes

    Tiempo Temperatura Precipitaciones Viento Presión Humedad
    00:00 +34°C° 0 mm 2 mps 740 mmHg 41%
    01:00 +34°C° 0 mm 2 mps 740 mmHg 45%
    02:00 +32°C° 0 mm 2 mps 739 mmHg 48%
    03:00 +32°C° 0 mm 2 mps 739 mmHg 52%
    04:00 +31°C° 0 mm 3 mps 740 mmHg 57%
    05:00 +30°C° 0 mm 3 mps 740 mmHg 62%
    06:00 +29°C° 0 mm 3 mps 740 mmHg 67%
    07:00 +31°C° 0 mm 3 mps 741 mmHg 63%
    08:00 +33°C° 0 mm 3 mps 742 mmHg 59%
    09:00 +35°C° 0 mm 3 mps 743 mmHg 56%
    10:00 +37°C° 0 mm 3 mps 742 mmHg 49%
    11:00 +39°C° 0 mm 3 mps 742 mmHg 42%
    12:00 +42°C° 0 mm 3 mps 741 mmHg 35%
    13:00 +42°C° 0 mm 2 mps 740 mmHg 31%
    14:00 +44°C° 0 mm 1 mps 739 mmHg 27%
    15:00 +45°C° 0 mm 1 mps 738 mmHg 23%
    16:00 +41°C° 1 mm 2 mps 738 mmHg 34%
    17:00 +36°C° 1 mm 4 mps 739 mmHg 44%
    18:00 +32°C° 1 mm 6 mps 739 mmHg 55%
    19:00 +32°C° 0.6 mm 4 mps 739 mmHg 55%
    20:00 +31°C° 0.6 mm 3 mps 740 mmHg 56%
    21:00 +31°C° 0.6 mm 2 mps 741 mmHg 56%
    22:00 +31°C° 0 mm 2 mps 741 mmHg 57%
    23:00 +30°C° 0 mm 3 mps 740 mmHg 59%

    Pasado mañana, 7 Abril, Martes

    Tiempo Temperatura Precipitaciones Viento Presión Humedad
    00:00 +30°C° 0 mm 4 mps 740 mmHg 60%
    01:00 +29°C° 0 mm 4 mps 740 mmHg 66%
    02:00 +29°C° 0 mm 4 mps 740 mmHg 72%
    03:00 +29°C° 0 mm 4 mps 740 mmHg 77%
    04:00 +29°C° 0 mm 3 mps 740 mmHg 78%
    05:00 +28°C° 0 mm 3 mps 740 mmHg 79%
    06:00 +28°C° 0 mm 3 mps 740 mmHg 80%
    07:00 +30°C° 0 mm 3 mps 741 mmHg 74%
    08:00 +31°C° 0 mm 3 mps 742 mmHg 67%
    09:00 +34°C° 0 mm 3 mps 742 mmHg 61%
    10:00 +35°C° 0 mm 3 mps 742 mmHg 55%
    11:00 +37°C° 0 mm 3 mps 741 mmHg 49%
    12:00 +39°C° 0 mm 3 mps 741 mmHg 44%
    13:00 +39°C° 0 mm 3 mps 740 mmHg 41%
    14:00 +40°C° 0 mm 3 mps 740 mmHg 38%
    15:00 +41°C° 0 mm 2 mps 739 mmHg 35%
    16:00 +40°C° 0 mm 2 mps 739 mmHg 38%
    17:00 +38°C° 0 mm 2 mps 739 mmHg 41%
    18:00 +37°C° 0 mm 2 mps 739 mmHg 44%
    19:00 +36°C° 0.2 mm 2 mps 740 mmHg 48%
    20:00 +35°C° 0.2 mm 2 mps 740 mmHg 52%
    21:00 +32°C° 0.2 mm 2 mps 741 mmHg 56%
    22:00 +32°C° 0 mm 2 mps 741 mmHg 58%
    23:00 +31°C° 0 mm 2 mps 741 mmHg 61%

    8 Abril, Miércoles

    Tiempo Temperatura Precipitaciones Viento Presión Humedad
    00:00 +31°C° 0 mm 2 mps 741 mmHg 63%
    01:00 +30°C° 0 mm 2 mps 740 mmHg 65%
    02:00 +30°C° 0 mm 3 mps 740 mmHg 68%
    03:00 +30°C° 0 mm 3 mps 739 mmHg 70%
    04:00 +29°C° 0 mm 3 mps 739 mmHg 73%
    05:00 +29°C° 0 mm 2 mps 740 mmHg 77%
    06:00 +29°C° 0 mm 2 mps 740 mmHg 80%
    07:00 +30°C° 0 mm 3 mps 740 mmHg 74%
    08:00 +33°C° 0 mm 3 mps 741 mmHg 67%
    09:00 +34°C° 0 mm 4 mps 741 mmHg 60%
    10:00 +36°C° 0 mm 3 mps 741 mmHg 54%
    11:00 +38°C° 0 mm 3 mps 741 mmHg 48%
    12:00 +40°C° 0 mm 3 mps 740 mmHg 42%
    13:00 +42°C° 0 mm 3 mps 739 mmHg 38%
    14:00 +42°C° 0 mm 2 mps 739 mmHg 34%
    15:00 +43°C° 0 mm 2 mps 738 mmHg 30%
    16:00 +41°C° 0 mm 1 mps 738 mmHg 32%
    17:00 +40°C° 0 mm 1 mps 738 mmHg 34%
    18:00 +39°C° 0 mm 1 mps 738 mmHg 36%
    19:00 +36°C° 1.6 mm 2 mps 738 mmHg 46%
    20:00 +33°C° 1.6 mm 3 mps 739 mmHg 56%
    21:00 +30°C° 1.6 mm 4 mps 740 mmHg 66%
    22:00 +29°C° 1.2 mm 4 mps 740 mmHg 67%
    23:00 +29°C° 1.2 mm 3 mps 741 mmHg 67%

    9 Abril, Jueves

    Tiempo Temperatura Precipitaciones Viento Presión Humedad
    00:00 +29°C° 1.2 mm 3 mps 741 mmHg 67%
    01:00 +28°C° 0.9 mm 3 mps 741 mmHg 70%
    02:00 +28°C° 0.9 mm 3 mps 741 mmHg 74%
    03:00 +28°C° 0.9 mm 2 mps 741 mmHg 77%
    04:00 +28°C° 0.2 mm 3 mps 741 mmHg 76%
    05:00 +28°C° 0.2 mm 4 mps 741 mmHg 76%
    06:00 +28°C° 0.2 mm 4 mps 741 mmHg 75%
    07:00 +29°C° 0 mm 4 mps 741 mmHg 69%
    08:00 +30°C° 0 mm 3 mps 742 mmHg 64%
    09:00 +31°C° 0 mm 3 mps 742 mmHg 58%
    10:00 +34°C° 0 mm 3 mps 742 mmHg 53%
    11:00 +36°C° 0 mm 3 mps 741 mmHg 48%
    12:00 +37°C° 0 mm 3 mps 741 mmHg 42%
    13:00 +38°C° 0 mm 3 mps 740 mmHg 38%
    14:00 +39°C° 0 mm 2 mps 739 mmHg 34%
    15:00 +40°C° 0 mm 2 mps 739 mmHg 31%
    16:00 +39°C° 0 mm 2 mps 739 mmHg 34%
    17:00 +38°C° 0 mm 2 mps 739 mmHg 38%
    18:00 +35°C° 0 mm 1 mps 739 mmHg 42%
    19:00 +34°C° 0 mm 1 mps 739 mmHg 46%
    20:00 +33°C° 0 mm 1 mps 739 mmHg 50%
    21:00 +32°C° 0 mm 1 mps 739 mmHg 53%
    22:00 +32°C° 0 mm 2 mps 739 mmHg 56%
    23:00 +31°C° 0 mm 2 mps 739 mmHg 59%

    10 Abril, Viernes

    Tiempo Temperatura Precipitaciones Viento Presión Humedad
    00:00 +31°C° 0 mm 2 mps 739 mmHg 62%
    01:00 +30°C° 0 mm 2 mps 739 mmHg 62%
    02:00 +30°C° 0 mm 2 mps 739 mmHg 63%
    03:00 +30°C° 0 mm 2 mps 739 mmHg 64%
    04:00 +29°C° 0 mm 2 mps 739 mmHg 66%
    05:00 +29°C° 0 mm 2 mps 739 mmHg 69%
    06:00 +29°C° 0 mm 2 mps 740 mmHg 71%
    07:00 +30°C° 0 mm 2 mps 740 mmHg 67%
    08:00 +33°C° 0 mm 3 mps 741 mmHg 63%
    09:00 +34°C° 0 mm 3 mps 742 mmHg 59%
    10:00 +36°C° 0 mm 3 mps 741 mmHg 53%
    11:00 +38°C° 0 mm 3 mps 741 mmHg 47%
    12:00 +39°C° 0 mm 3 mps 741 mmHg 41%
    13:00 +40°C° 0 mm 2 mps 740 mmHg 38%
    14:00 +40°C° 0 mm 2 mps 739 mmHg 35%
    15:00 +40°C° 0 mm 2 mps 738 mmHg 33%
    16:00 +39°C° 0.1 mm 2 mps 738 mmHg 37%
    17:00 +37°C° 0.1 mm 1 mps 738 mmHg 41%
    18:00 +36°C° 0.1 mm 1 mps 738 mmHg 45%
    19:00 +35°C° 0.8 mm 2 mps 739 mmHg 51%
    20:00 +34°C° 0.8 mm 3 mps 740 mmHg 57%
    21:00 +32°C° 0.8 mm 4 mps 741 mmHg 64%
    22:00 +30°C° 2.3 mm 3 mps 741 mmHg 69%
    23:00 +29°C° 2.3 mm 2 mps 742 mmHg 74%
    Mostrar más